OK,64,56,1036,64,2014-10-01T01:40:00,0,28072806,204219
OK,64,56,1036,64,2014-10-01T01:45:00,0,28073253,204219
OK,64,56,1036,64,2014-10-01T01:50:00,0,28073701,204219
OK,64,56,1036,64,2014-10-01T01:55:00,0,28074019,204219
OK,64,56,1036,64,2014-10-01T02:05:00,0,28074908,204219
OK,64,56,1036,64,2014-10-01T02:10:00,0,28075357,204219
OK,64,56,1036,64,2014-10-01T02:15:00,0,28075806,204219
OK,64,56,1036,64,2014-10-01T02:20:00,0,28076189,204219
OK,64,56,1036,64,2014-10-01T02:25:00,0,28076638,204219
OK,64,56,1036,64,2014-10-01T02:30:00,0,28077087,204219
OK,64,56,1036,64,2014-10-01T02:35:00,0,28077536,204219
OK,64,56,1036,64,2014-10-01T02:40:00,0,28077939,204219
OK,64,56,1036,64,2014-10-01T02:45:00,0,28078388,204219
OK,64,56,1036,64,2014-10-01T02:50:00,0,28078833,204219
OK,64,56,1036,64,2014-10-01T02:55:00,0,28079281,204219
OK,64,56,1036,64,2014-10-01T03:00:00,0,28079724,204219
OK,62,57,1036,62,2014-10-01T03:05:00,1,28080173,204219
OK,62,57,1036,62,2014-10-01T03:10:00,1,28080507,204219
OK,66,54,1036,66,2014-10-01T03:15:00,0,28080956,204219
OK,76,47,1036,76,2014-10-01T03:20:00,3,28081405,204219
OK,82,43,1036,82,2014-10-01T03:25:00,2,28081852,204219
OK,73,49,1036,73,2014-10-01T03:30:00,1,28082301,204219
OK,73,49,1036,73,2014-10-01T03:35:00,0,28082734,204219
OK,73,49,1036,73,2014-10-01T03:40:00,0,28083166,204219
OK,67,53,1036,67,2014-10-01T03:45:00,1,28083615,204219
OK,67,53,1036,67,2014-10-01T03:50:00,0,28084064,204219
OK,70,51,1036,70,2014-10-01T03:55:00,1,28084505,204219
OK,62,57,1036,62,2014-10-01T04:00:00,4,28084930,204219
OK,66,54,1036,66,2014-10-01T04:05:00,3,28085379,204219
OK,65,55,1036,65,2014-10-01T04:10:00,4,28085824,204219
OK,69,51,1036,69,2014-10-01T04:15:00,2,28086273,204219
OK,63,56,1036,63,2014-10-01T04:20:00,3,28086715,204219
OK,68,52,1036,68,2014-10-01T04:25:00,4,28087164,204219
OK,70,51,1036,70,2014-10-01T04:30:00,9,28087609,204219
OK,70,51,1036,70,2014-10-01T04:35:00,10,28088058,204219
OK,69,51,1036,69,2014-10-01T04:40:00,3,28088482,204219
OK,94,38,1036,94,2014-10-01T04:45:00,3,28088931,204219
OK,77,46,1036,77,2014-10-01T04:50:00,7,28089361,204219
OK,79,45,1036,79,2014-10-01T04:55:00,13,28089810,204219
OK,79,45,1036,79,2014-10-01T05:00:00,16,28090259,204219
OK,82,43,1036,82,2014-10-01T05:05:00,15,28090603,204219
OK,82,43,1036,82,2014-10-01T05:10:00,9,28091052,204219
OK,103,34,1036,103,2014-10-01T05:15:00,5,28091501,204219
OK,104,34,1036,104,2014-10-01T05:20:00,11,28091918,204219
OK,109,32,1036,109,2014-10-01T05:25:00,13,28092367,204219
OK,109,32,1036,109,2014-10-01T05:30:00,12,28092811,204219
OK,108,33,1036,108,2014-10-01T05:35:00,10,28093252,204219
OK,107,33,1036,107,2014-10-01T05:40:00,13,28093683,204219
OK,136,26,1036,136,2014-10-01T05:45:00,12,28094132,204219
OK,173,20,1036,173,2014-10-01T05:50:00,15,28094543,204219
OK,173,20,1036,173,2014-10-01T05:55:00,13,28094988,204219
OK,118,30,1036,118,2014-10-01T06:00:00,12,28095435,204219
OK,117,30,1036,117,2014-10-01T06:05:00,19,28095884,204219
OK,139,25,1036,139,2014-10-01T06:10:00,19,28096297,204219
OK,135,26,1036,135,2014-10-01T06:15:00,16,28096746,204219
OK,120,29,1036,120,2014-10-01T06:20:00,11,28097180,204219
OK,126,28,1036,126,2014-10-01T06:25:00,13,28097629,204219
OK,134,26,1036,134,2014-10-01T06:30:00,11,28098078,204219
OK,125,28,1036,125,2014-10-01T06:35:00,5,28098515,204219
OK,101,35,1036,101,2014-10-01T06:40:00,10,28098959,204219
OK,100,35,1036,100,2014-10-01T06:45:00,13,28099407,204219
OK,94,38,1036,94,2014-10-01T06:50:00,20,28099750,204219
OK,69,51,1036,69,2014-10-01T06:55:00,15,28100199,204219
OK,73,49,1036,73,2014-10-01T07:00:00,6,28100506,204219
OK,74,48,1036,74,2014-10-01T07:10:00,11,28101326,204219
OK,73,49,1036,73,2014-10-01T07:15:00,9,28101775,204219
OK,70,51,1036,70,2014-10-01T07:20:00,6,28102211,204219
OK,79,45,1036,79,2014-10-01T07:25:00,1,28102660,204219
OK,77,46,1036,77,2014-10-01T07:30:00,2,28103088,204219
OK,69,51,1036,69,2014-10-01T07:35:00,3,28103534,204219
OK,62,57,1036,62,2014-10-01T07:40:00,2,28103979,204219
OK,93,38,1036,93,2014-10-01T07:45:00,1,28104424,204219
OK,76,47,1036,76,2014-10-01T07:50:00,5,28104865,204219
OK,76,47,1036,76,2014-10-01T07:55:00,4,28105310,204219
OK,70,51,1036,70,2014-10-01T08:00:00,6,28105750,204219
OK,68,52,1036,68,2014-10-01T08:05:00,4,28106199,204219
OK,66,54,1036,66,2014-10-01T08:10:00,4,28106636,204219
OK,64,56,1036,64,2014-10-01T08:15:00,5,28107042,204219
OK,81,44,1036,81,2014-10-01T08:20:00,3,28107474,204219
OK,75,47,1036,75,2014-10-01T08:25:00,5,28107923,204219
OK,67,53,1036,67,2014-10-01T08:30:00,3,28108362,204219
OK,94,38,1036,94,2014-10-01T08:35:00,2,28108811,204219
OK,90,39,1036,90,2014-10-01T08:40:00,2,28109239,204219
OK,64,56,1036,64,2014-10-01T08:45:00,4,28109688,204219
OK,63,56,1036,63,2014-10-01T08:50:00,3,28110031,204219
OK,76,47,1036,76,2014-10-01T09:00:00,1,28110903,204219
OK,68,52,1036,68,2014-10-01T09:05:00,1,28111352,204219
OK,65,55,1036,65,2014-10-01T09:10:00,2,28111781,204219
OK,70,51,1036,70,2014-10-01T09:15:00,3,28112230,204219
OK,79,45,1036,79,2014-10-01T09:20:00,8,28112571,204219
OK,73,49,1036,73,2014-10-01T09:30:00,2,28113444,204219
OK,90,39,1036,90,2014-10-01T09:35:00,3,28113893,204219
OK,85,42,1036,85,2014-10-01T09:40:00,5,28114325,204219
OK,81,44,1036,81,2014-10-01T09:45:00,6,28114774,204219
OK,63,56,1036,63,2014-10-01T09:50:00,3,28115128,204219
OK,66,54,1036,66,2014-10-01T10:00:00,6,28115989,204219
OK,68,52,1036,68,2014-10-01T10:05:00,3,28116438,204219
OK,71,50,1036,71,2014-10-01T10:10:00,2,28116846,204219
OK,80,44,1036,80,2014-10-01T10:15:00,2,28117295,204219
OK,102,35,1036,102,2014-10-01T10:20:00,2,28117720,204219
OK,103,34,1036,103,2014-10-01T10:25:00,1,28118169,204219
OK,69,51,1036,69,2014-10-01T10:30:00,2,28118614,204219
OK,77,46,1036,77,2014-10-01T10:35:00,6,28119061,204219
OK,73,49,1036,73,2014-10-01T10:40:00,10,28119505,204219
OK,70,51,1036,70,2014-10-01T10:45:00,8,28119953,204219
OK,65,55,1036,65,2014-10-01T10:50:00,9,28120401,204219
OK,65,55,1036,65,2014-10-01T10:55:00,7,28120850,204219
OK,73,49,1036,73,2014-10-01T11:00:00,5,28121233,204219
OK,68,52,1036,68,2014-10-01T11:05:00,6,28121682,204219
OK,83,43,1036,83,2014-10-01T11:10:00,6,28122120,204219
OK,69,51,1036,69,2014-10-01T11:15:00,5,28122569,204219
OK,82,43,1036,82,2014-10-01T11:20:00,5,28123010,204219
OK,73,49,1036,73,2014-10-01T11:25:00,6,28123459,204219
OK,70,51,1036,70,2014-10-01T11:30:00,7,28123891,204219
OK,81,44,1036,81,2014-10-01T11:35:00,7,28124340,204219
OK,81,44,1036,81,2014-10-01T11:40:00,5,28124742,204219
OK,66,54,1036,66,2014-10-01T11:45:00,4,28125191,204219
OK,72,49,1036,72,2014-10-01T11:50:00,5,28125620,204219
OK,80,44,1036,80,2014-10-01T11:55:00,3,28126069,204219
OK,80,44,1036,80,2014-10-01T12:00:00,3,28126421,204219
OK,95,37,1036,95,2014-10-01T12:10:00,2,28127319,204219
OK,75,47,1036,75,2014-10-01T12:15:00,8,28127768,204219
OK,100,35,1036,100,2014-10-01T12:20:00,13,28128196,204219
OK,73,49,1036,73,2014-10-01T12:25:00,11,28128645,204219
OK,76,47,1036,76,2014-10-01T12:30:00,6,28129080,204219
OK,108,33,1036,108,2014-10-01T12:35:00,2,28129529,204219
OK,131,27,1036,131,2014-10-01T12:40:00,0,28129963,204219
OK,105,34,1036,105,2014-10-01T12:45:00,1,28130412,204219
OK,87,41,1036,87,2014-10-01T12:50:00,4,28130840,204219
OK,96,37,1036,96,2014-10-01T12:55:00,9,28131289,204219
OK,90,39,1036,90,2014-10-01T13:00:00,11,28131726,204219
OK,90,39,1036,90,2014-10-01T13:05:00,7,28132175,204219
OK,62,57,1036,62,2014-10-01T13:10:00,6,28132613,204219
OK,64,56,1036,64,2014-10-01T13:15:00,7,28133060,204219
OK,99,36,1036,99,2014-10-01T13:20:00,7,28133498,204219
OK,108,33,1036,108,2014-10-01T13:25:00,5,28133947,204219
OK,109,32,1036,109,2014-10-01T13:30:00,10,28134386,204219
OK,105,34,1036,105,2014-10-01T13:35:00,8,28134835,204219
OK,97,36,1036,97,2014-10-01T13:40:00,0,28135254,204219
OK,125,28,1036,125,2014-10-01T13:45:00,3,28135703,204219
OK,164,21,1036,164,2014-10-01T13:50:00,6,28136140,204219
OK,137,26,1036,137,2014-10-01T13:55:00,8,28136589,204219
OK,103,34,1036,103,2014-10-01T14:00:00,7,28137029,204219
OK,126,28,1036,126,2014-10-01T14:05:00,5,28137478,204219
OK,92,38,1036,92,2014-10-01T14:10:00,5,28137912,204219
OK,81,44,1036,81,2014-10-01T14:15:00,6,28138361,204219
OK,108,33,1036,108,2014-10-01T14:20:00,6,28138789,204219
OK,129,27,1036,129,2014-10-01T14:25:00,7,28139238,204219
OK,126,28,1036,126,2014-10-01T14:30:00,7,28139649,204219
OK,104,34,1036,104,2014-10-01T14:35:00,5,28140098,204219
OK,107,33,1036,107,2014-10-01T14:40:00,4,28140540,204219
OK,127,28,1036,127,2014-10-01T14:45:00,6,28140989,204219
OK,110,32,1036,110,2014-10-01T14:50:00,6,28141415,204219
OK,97,36,1036,97,2014-10-01T14:55:00,6,28141864,204219
OK,98,36,1036,98,2014-10-01T15:00:00,7,28142292,204219
OK,80,44,1036,80,2014-10-01T15:05:00,3,28142741,204219
OK,71,50,1036,71,2014-10-01T15:10:00,4,28143168,204219
OK,71,50,1036,71,2014-10-01T15:15:00,5,28143617,204219
OK,71,50,1036,71,2014-10-01T15:20:00,7,28144065,204219
OK,71,50,1036,71,2014-10-01T15:25:00,9,28144514,204219
OK,99,36,1036,99,2014-10-01T15:30:00,6,28144935,204219
OK,108,33,1036,108,2014-10-01T15:35:00,5,28145349,204219
OK,72,49,1036,72,2014-10-01T15:40:00,0,28145798,204219
OK,56,64,1036,56,2014-10-01T15:45:00,5,28146247,204219
OK,61,58,1036,61,2014-10-01T15:50:00,5,28146696,204219
OK,61,58,1036,61,2014-10-01T15:55:00,1,28147104,204219
OK,61,58,1036,61,2014-10-01T16:00:00,0,28147548,204219
OK,84,42,1036,84,2014-10-01T16:05:00,2,28147997,204219
OK,84,42,1036,84,2014-10-01T16:10:00,2,28148398,204219
OK,78,45,1036,78,2014-10-01T16:20:00,4,28149286,204219
OK,92,38,1036,92,2014-10-01T16:25:00,5,28149735,204219
OK,100,35,1036,100,2014-10-01T16:30:00,2,28150161,204219
OK,87,41,1036,87,2014-10-01T16:35:00,2,28150610,204219
OK,65,55,1036,65,2014-10-01T16:40:00,3,28151028,204219
OK,65,55,1036,65,2014-10-01T16:45:00,3,28151477,204219
OK,75,47,1036,75,2014-10-01T16:50:00,3,28151926,204219
OK,56,64,1036,56,2014-10-01T17:00:00,1,28152375,204219
OK,65,55,1036,65,2014-10-01T17:05:00,7,28152821,204219
OK,63,56,1036,63,2014-10-01T17:10:00,7,28153268,204219
OK,63,56,1036,63,2014-10-01T17:15:00,3,28153717,204219
OK,68,52,1036,68,2014-10-01T17:20:00,1,28154127,204219
OK,65,55,1036,65,2014-10-01T17:25:00,2,28154576,204219
OK,59,60,1036,59,2014-10-01T17:30:00,1,28155018,204219
OK,58,61,1036,58,2014-10-01T17:35:00,1,28155466,204219
OK,55,65,1036,55,2014-10-01T17:40:00,1,28155884,204219
OK,62,57,1036,62,2014-10-01T17:45:00,4,28156333,204219
OK,65,55,1036,65,2014-10-01T17:50:00,3,28156781,204219
OK,65,55,1036,65,2014-10-01T17:55:00,0,28157220,204219
OK,63,56,1036,63,2014-10-01T18:00:00,1,28157650,204219
OK,63,56,1036,63,2014-10-01T18:05:00,1,28158098,204219
OK,65,55,1036,65,2014-10-01T18:10:00,1,28158542,204219
OK,66,54,1036,66,2014-10-01T18:15:00,3,28158988,204219
OK,80,44,1036,80,2014-10-01T18:20:00,2,28159434,204219
OK,83,43,1036,83,2014-10-01T18:25:00,0,28159769,204219
OK,58,61,1036,58,2014-10-01T18:35:00,1,28160667,204219
OK,58,61,1036,58,2014-10-01T18:40:00,1,28161105,204219
OK,68,52,1036,68,2014-10-01T18:45:00,1,28161554,204219
OK,68,52,1036,68,2014-10-01T18:50:00,0,28161971,204219
OK,68,52,1036,68,2014-10-01T18:55:00,0,28162420,204219
OK,68,52,1036,68,2014-10-01T19:00:00,0,28162814,204219
OK,68,52,1036,68,2014-10-01T19:05:00,0,28163253,204219
OK,68,52,1036,68,2014-10-01T19:10:00,0,28163701,204219
OK,68,52,1036,68,2014-10-01T19:15:00,0,28164150,204219
OK,68,52,1036,68,2014-10-01T19:20:00,0,28164581,204219
OK,68,52,1036,68,2014-10-01T19:25:00,0,28165030,204219
OK,68,52,1036,68,2014-10-01T19:30:00,0,28165455,204219
OK,68,52,1036,68,2014-10-01T19:35:00,0,28165903,204219
OK,68,52,1036,68,2014-10-01T19:40:00,0,28166344,204219
OK,70,51,1036,70,2014-10-01T19:45:00,1,28166706,204219
OK,70,51,1036,70,2014-10-01T19:50:00,0,28167155,204219
OK,65,55,1036,65,2014-10-01T19:55:00,2,28167584,204219
OK,62,57,1036,62,2014-10-01T20:00:00,1,28168017,204219
OK,62,57,1036,62,2014-10-01T20:05:00,2,28168466,204219
OK,64,56,1036,64,2014-10-01T20:10:00,1,28168911,204219
OK,64,56,1036,64,2014-10-01T20:15:00,1,28169360,204219
OK,64,56,1036,64,2014-10-01T20:20:00,0,28169808,204219
OK,63,56,1036,63,2014-10-01T20:25:00,2,28170234,204219
OK,63,56,1036,63,2014-10-01T20:30:00,2,28170679,204219
OK,63,56,1036,63,2014-10-01T20:35:00,0,28171127,204219
OK,63,56,1036,63,2014-10-01T20:40:00,0,28171564,204219
OK,63,56,1036,63,2014-10-01T20:45:00,0,28172010,204219
OK,77,46,1036,77,2014-10-01T20:50:00,2,28172458,204219
OK,65,55,1036,65,2014-10-01T20:55:00,2,28172904,204219
OK,66,54,1036,66,2014-10-01T21:00:00,1,28173350,204219
OK,66,54,1036,66,2014-10-01T21:05:00,0,28173799,204219
OK,66,54,1036,66,2014-10-01T21:10:00,0,28174240,204219
OK,66,54,1036,66,2014-10-01T21:15:00,0,28174689,204219
OK,66,54,1036,66,2014-10-01T21:20:00,0,28175115,204219
OK,63,56,1036,63,2014-10-01T21:25:00,1,28175511,204219
OK,63,56,1036,63,2014-10-01T21:30:00,0,28175960,204219
OK,63,56,1036,63,2014-10-01T21:35:00,0,28176409,204219
OK,63,56,1036,63,2014-10-01T21:40:00,0,28176858,204219
OK,63,56,1036,63,2014-10-01T21:45:00,0,28177214,204219
OK,63,56,1036,63,2014-10-01T21:50:00,0,28177654,204219
OK,63,56,1036,63,2014-10-01T21:55:00,0,28178100,204219
OK,63,56,1036,63,2014-10-01T22:00:00,0,28178549,204219
OK,63,56,1036,63,2014-10-01T22:05:00,0,28178996,204219
OK,63,56,1036,63,2014-10-01T22:10:00,0,28179430,204219
OK,63,56,1036,63,2014-10-01T22:15:00,0,28179873,204219
OK,63,56,1036,63,2014-10-01T22:20:00,0,28180320,204219
OK,60,59,1036,60,2014-10-01T22:25:00,1,28180718,204219
OK,60,59,1036,60,2014-10-01T22:30:00,1,28181167,204219
OK,60,59,1036,60,2014-10-01T22:35:00,0,28181591,204219
OK,60,59,1036,60,2014-10-01T22:40:00,0,28182039,204219
OK,60,59,1036,60,2014-10-01T22:45:00,0,28182486,204219
OK,60,59,1036,60,2014-10-01T22:50:00,0,28182935,204219
OK,60,59,1036,60,2014-10-01T22:55:00,0,28183352,204219
OK,60,59,1036,60,2014-10-01T23:00:00,0,28183785,204219
OK,60,59,1036,60,2014-10-01T23:05:00,0,28184230,204219
OK,60,59,1036,60,2014-10-01T23:10:00,0,28184679,204219
OK,60,59,1036,60,2014-10-01T23:15:00,0,28185114,204219
OK,60,59,1036,60,2014-10-01T23:20:00,0,28185562,204219
OK,60,59,1036,60,2014-10-01T23:25:00,0,28185993,204219
OK,60,59,1036,60,2014-10-01T23:30:00,0,28186385,204219
OK,60,59,1036,60,2014-10-01T23:40:00,0,28187232,204219
OK,60,59,1036,60,2014-10-01T23:55:00,0,28188564,204219
OK,60,59,1036,60,2014-10-02T00:05:00,0,28189449,204219
OK,60,59,1036,60,2014-10-02T00:10:00,0,28189871,204219
OK,60,59,1036,60,2014-10-02T00:15:00,0,28190320,204219
OK,60,59,1036,60,2014-10-02T00:20:00,0,28190673,204219
OK,60,59,1036,60,2014-10-02T00:30:00,0,28191571,204219
OK,60,59,1036,60,2014-10-02T00:35:00,0,28191877,204219
OK,60,59,1036,60,2014-10-02T00:45:00,0,28192759,204219
OK,60,59,1036,60,2014-10-02T00:50:00,0,28193203,204219
OK,60,59,1036,60,2014-10-02T00:55:00,0,28193570,204219
OK,60,59,1036,60,2014-10-02T01:05:00,0,28194468,204219
OK,60,59,1036,60,2014-10-02T01:10:00,0,28194917,204219
OK,60,59,1036,60,2014-10-02T01:15:00,0,28195153,204219
OK,60,59,1036,60,2014-10-02T01:25:00,0,28196051,204219
OK,60,59,1036,60,2014-10-02T01:30:00,0,28196335,204219
OK,60,59,1036,60,2014-10-02T01:35:00,0,28196784,204219
OK,60,59,1036,60,2014-10-02T01:40:00,0,28197207,204219
OK,60,59,1036,60,2014-10-02T01:45:00,0,28197656,204219
OK,60,59,1036,60,2014-10-02T01:50:00,0,28198104,204219
OK,60,59,1036,60,2014-10-02T01:55:00,0,28198552,204219
OK,60,59,1036,60,2014-10-02T02:00:00,0,28199001,204219
OK,60,59,1036,60,2014-10-02T02:05:00,0,28199373,204219
OK,60,59,1036,60,2014-10-02T02:10:00,0,28199815,204219
OK,60,59,1036,60,2014-10-02T02:15:00,0,28200257,204219
OK,60,59,1036,60,2014-10-02T02:20:00,0,28200700,204219
OK,60,59,1036,60,2014-10-02T02:25:00,0,28201149,204219
OK,60,59,1036,60,2014-10-02T02:30:00,0,28201580,204219
OK,60,59,1036,60,2014-10-02T02:45:00,0,28202478,204219
OK,63,56,1036,63,2014-10-02T02:50:00,2,28202920,204219
OK,63,56,1036,63,2014-10-02T02:55:00,2,28203368,204219
OK,63,56,1036,63,2014-10-02T03:00:00,0,28203803,204219
OK,63,56,1036,63,2014-10-02T03:10:00,0,28204252,204219
OK,63,56,1036,63,2014-10-02T03:25:00,0,28204701,204219
OK,63,56,1036,63,2014-10-02T03:30:00,0,28205150,204219
OK,80,44,1036,80,2014-10-02T03:35:00,2,28205578,204219
OK,72,49,1036,72,2014-10-02T03:40:00,1,28206025,204219
OK,75,47,1036,75,2014-10-02T03:45:00,3,28206408,204219
OK,79,45,1036,79,2014-10-02T03:55:00,0,28207306,204219
OK,74,48,1036,74,2014-10-02T04:00:00,3,28207725,204219
OK,74,48,1036,74,2014-10-02T04:05:00,0,28208174,204219
OK,61,58,1036,61,2014-10-02T04:10:00,1,28208601,204219
OK,61,58,1036,61,2014-10-02T04:15:00,0,28209050,204219
OK,60,59,1036,60,2014-10-02T04:20:00,2,28209488,204219
OK,60,59,1036,60,2014-10-02T04:25:00,0,28209937,204219
OK,67,53,1036,67,2014-10-02T04:30:00,7,28210360,204219
OK,62,57,1036,62,2014-10-02T04:35:00,2,28210809,204219
OK,74,48,1036,74,2014-10-02T04:40:00,10,28211234,204219
OK,76,47,1036,76,2014-10-02T04:45:00,0,28211678,204219
OK,76,47,1036,76,2014-10-02T04:50:00,0,28212056,204219
OK,86,41,1036,86,2014-10-02T05:00:00,5,28212934,204219
OK,100,35,1036,100,2014-10-02T05:05:00,3,28213383,204219
OK,84,42,1036,84,2014-10-02T05:10:00,1,28213821,204219
OK,105,34,1036,105,2014-10-02T05:15:00,6,28214270,204219
OK,111,32,1036,111,2014-10-02T05:20:00,1,28214683,204219
OK,105,34,1036,105,2014-10-02T05:25:00,7,28215132,204219
OK,93,38,1036,93,2014-10-02T05:30:00,3,28215548,204219
OK,93,38,1036,93,2014-10-02T05:35:00,0,28215997,204219
OK,103,34,1036,103,2014-10-02T05:40:00,8,28216336,204219
OK,92,38,1036,92,2014-10-02T05:45:00,0,28216776,204219
OK,92,38,1036,92,2014-10-02T05:50:00,0,28217223,204219
OK,158,22,1036,158,2014-10-02T05:55:00,10,28217672,204219
OK,151,23,1036,151,2014-10-02T06:00:00,12,28218111,204219
OK,143,25,1036,143,2014-10-02T06:05:00,8,28218560,204219
OK,150,23,1036,150,2014-10-02T06:10:00,2,28218980,204219
OK,134,26,1036,134,2014-10-02T06:15:00,16,28219429,204219
OK,123,29,1036,123,2014-10-02T06:20:00,6,28219802,204219
OK,108,33,1036,108,2014-10-02T06:30:00,15,28220685,204219
OK,81,44,1036,81,2014-10-02T06:35:00,10,28221134,204219
OK,75,47,1036,75,2014-10-02T06:40:00,6,28221515,204219
OK,74,48,1036,74,2014-10-02T06:45:00,3,28221801,204219
OK,70,51,1036,70,2014-10-02T07:00:00,8,28222395,204219
OK,82,43,1036,82,2014-10-02T07:10:00,4,28223275,204219
OK,88,40,1036,88,2014-10-02T07:15:00,2,28223710,204219
OK,88,40,1036,88,2014-10-02T07:20:00,0,28224158,204219
OK,94,38,1036,94,2014-10-02T07:25:00,4,28224513,204219
OK,74,48,1036,74,2014-10-02T07:35:00,6,28225411,204219
OK,65,55,1036,65,2014-10-02T07:40:00,2,28225733,204219
OK,89,40,1036,89,2014-10-02T07:50:00,11,28226623,204219
OK,89,40,1036,89,2014-10-02T07:55:00,10,28227072,204219
OK,120,29,1036,120,2014-10-02T08:00:00,2,28227487,204219
OK,64,56,1036,64,2014-10-02T08:05:00,4,28227936,204219
OK,64,56,1036,64,2014-10-02T08:10:00,2,28228295,204219
OK,63,56,1036,63,2014-10-02T08:20:00,1,28229154,204219
OK,65,55,1036,65,2014-10-02T08:25:00,5,28229603,204219
OK,63,56,1036,63,2014-10-02T08:30:00,1,28229953,204219
OK,96,37,1036,96,2014-10-02T08:40:00,0,28230768,204219
OK,91,39,1036,91,2014-10-02T08:45:00,0,28231216,204219
OK,68,52,1036,68,2014-10-02T08:50:00,7,28231640,204219
OK,78,45,1036,78,2014-10-02T08:55:00,2,28232089,204219
OK,77,46,1036,77,2014-10-02T09:00:00,0,28232431,204219
OK,77,46,1036,77,2014-10-02T09:10:00,0,28232880,204219
OK,78,45,1036,78,2014-10-02T09:15:00,2,28233329,204219
OK,75,47,1036,75,2014-10-02T09:20:00,0,28233753,204219
OK,63,56,1036,63,2014-10-02T09:25:00,3,28234202,204219
OK,63,56,1036,63,2014-10-02T09:30:00,0,28234535,204219
OK,58,61,1036,58,2014-10-02T09:40:00,1,28235411,204219
OK,59,60,1036,59,2014-10-02T09:45:00,4,28235860,204219
OK,61,58,1036,61,2014-10-02T09:50:00,1,28236303,204219
OK,104,34,1036,104,2014-10-02T09:55:00,5,28236750,204219
OK,104,34,1036,104,2014-10-02T10:00:00,4,28237153,204219
OK,78,45,1036,78,2014-10-02T10:05:00,0,28237600,204219
OK,91,39,1036,91,2014-10-02T10:10:00,4,28238049,204219
OK,87,41,1036,87,2014-10-02T10:15:00,7,28238496,204219
OK,87,41,1036,87,2014-10-02T10:20:00,10,28238937,204219
OK,87,41,1036,87,2014-10-02T10:25:00,4,28239386,204219
OK,90,39,1036,90,2014-10-02T10:30:00,0,28239816,204219
OK,67,53,1036,67,2014-10-02T10:35:00,3,28240265,204219
OK,87,41,1036,87,2014-10-02T10:40:00,3,28240709,204219
OK,87,41,1036,87,2014-10-02T10:45:00,9,28241158,204219
OK,82,43,1036,82,2014-10-02T10:50:00,6,28241590,204219
OK,70,51,1036,70,2014-10-02T10:55:00,2,28242038,204219
OK,70,51,1036,70,2014-10-02T11:00:00,0,28242434,204219
OK,70,51,1036,70,2014-10-02T11:05:00,0,28242883,204219
OK,72,49,1036,72,2014-10-02T11:10:00,5,28243332,204219
OK,76,47,1036,76,2014-10-02T11:15:00,3,28243657,204219
OK,70,51,1036,70,2014-10-02T11:20:00,4,28244095,204219
OK,77,46,1036,77,2014-10-02T11:25:00,2,28244524,204219
OK,63,56,1036,63,2014-10-02T11:30:00,0,28244973,204219
OK,74,48,1036,74,2014-10-02T11:35:00,4,28245422,204219
OK,60,59,1036,60,2014-10-02T11:40:00,0,28245828,204219
OK,60,59,1036,60,2014-10-02T11:45:00,0,28246277,204219
OK,63,56,1036,63,2014-10-02T11:50:00,2,28246714,204219
OK,74,48,1036,74,2014-10-02T11:55:00,3,28247163,204219
OK,101,35,1036,101,2014-10-02T12:00:00,7,28247609,204219
OK,95,37,1036,95,2014-10-02T12:05:00,4,28248039,204219
OK,95,37,1036,95,2014-10-02T12:10:00,0,28248488,204219
OK,66,54,1036,66,2014-10-02T12:15:00,4,28248935,204219
OK,94,38,1036,94,2014-10-02T12:20:00,2,28249363,204219
OK,90,39,1036,90,2014-10-02T12:25:00,7,28249807,204219
OK,90,39,1036,90,2014-10-02T12:30:00,4,28250226,204219
OK,101,35,1036,101,2014-10-02T12:35:00,2,28250624,204219
OK,89,40,1036,89,2014-10-02T13:20:00,11,28251949,204219
OK,77,46,1036,77,2014-10-02T13:30:00,9,28252533,204219
OK,76,47,1036,76,2014-10-02T13:35:00,6,28252975,204219
OK,75,47,1036,75,2014-10-02T13:40:00,0,28253392,204219
OK,118,30,1036,118,2014-10-02T13:50:00,3,28254246,204219
OK,151,23,1036,151,2014-10-02T13:55:00,3,28254567,204219
OK,127,28,1036,127,2014-10-02T14:10:00,4,28255144,204219
OK,137,26,1036,137,2014-10-02T14:15:00,4,28255593,204219
OK,201,17,1036,201,2014-10-02T14:20:00,1,28256021,204219
OK,201,17,1036,201,2014-10-02T14:25:00,0,28256470,204219
OK,124,28,1036,124,2014-10-02T14:30:00,3,28256898,204219
OK,124,28,1036,124,2014-10-02T14:35:00,1,28257347,204219
OK,107,33,1036,107,2014-10-02T14:40:00,3,28257788,204219
OK,119,30,1036,119,2014-10-02T14:45:00,6,28258236,204219
OK,131,27,1036,131,2014-10-02T14:50:00,2,28258669,204219
OK,111,32,1036,111,2014-10-02T14:55:00,1,28259115,204219
OK,94,38,1036,94,2014-10-02T15:00:00,9,28259564,204219
OK,93,38,1036,93,2014-10-02T15:05:00,6,28260011,204219
OK,85,42,1036,85,2014-10-02T15:10:00,2,28260444,204219
OK,106,33,1036,106,2014-10-02T15:15:00,5,28260893,204219
OK,110,32,1036,110,2014-10-02T15:20:00,4,28261333,204219
OK,103,34,1036,103,2014-10-02T15:25:00,2,28261715,204219
OK,126,28,1036,126,2014-10-02T15:40:00,4,28263038,204219
OK,74,48,1036,74,2014-10-02T15:45:00,3,28263476,204219
OK,74,48,1036,74,2014-10-02T15:50:00,0,28263917,204219
OK,74,48,1036,74,2014-10-02T15:55:00,0,28264319,204219
OK,109,32,1036,109,2014-10-02T16:00:00,5,28264768,204219
OK,99,36,1036,99,2014-10-02T16:05:00,5,28265206,204219
OK,109,32,1036,109,2014-10-02T16:10:00,0,28265646,204219
OK,66,54,1036,66,2014-10-02T16:15:00,2,28266042,204219
OK,70,51,1036,70,2014-10-02T16:20:00,8,28266491,204219
OK,78,45,1036,78,2014-10-02T16:25:00,5,28266940,204219
OK,78,45,1036,78,2014-10-02T16:30:00,3,28267263,204219
OK,62,57,1036,62,2014-10-02T16:40:00,0,28268161,204219
OK,64,56,1036,64,2014-10-02T16:45:00,1,28268603,204219
OK,64,56,1036,64,2014-10-02T16:50:00,0,28269052,204219
OK,67,53,1036,67,2014-10-02T16:55:00,3,28269501,204219
OK,67,53,1036,67,2014-10-02T17:00:00,1,28269936,204219
OK,67,53,1036,67,2014-10-02T17:05:00,1,28270385,204219